Tracking 25701 objects as of 4-Jul-2022
HD Live streaming from Space Station
objects crossing your sky now

FENGYUN 1C DEB

Track FENGYUN 1C DEB now!
10-day predictions


NORAD ID: 30333
Int'l Code: 1999-025AAU
Perigee: 507.4 km
Apogee: 695.3 km
Inclination: 98.9 °
Period: 96.6 minutes
Semi major axis: 6972 km
RCS: 0.026 m2 (small)
Launch date: May 10, 1999
Source: People's Republic of China (PRC)
Launch site: Taiyaun Space Center, China (TSC)

Note: This is SATELLITE DEBRIS
aabbcc
Your satellite tracking list
Your tracking list is empty




NASA's NSSDC Master Catalog

Two Line Element Set (TLE):
1 30333U 99025AAU 22184.50381992  .00004867  00000-0  41868-3 0  9996
2 30333  98.8788  89.6843 0134687 309.4210 225.9760 14.91195399830258
Source of the keplerian elements: AFSPC